User: anonymous   Login
Location: Nairn
(57.5833°N, 3.8667°W)
Time: 14:04:28
(UTC+00:00)
Language:

Transit 2A - Orbit

View from above orbital plane
View from above orbital plane
View from above satellite
View from above satellite

Ground track
Ground track

The orbit data is extracted from the following two-line orbital elements,

1    45U 60007A   22276.99349347  .00000214  00000-0  81021-4 0  9992
2    45  66.6956 330.8786 0248006  64.5073 298.1455 14.33911231242919
Epoch (UTC): 03 October 2022 23:50:37
Eccentricity: 0.0248006
inclination: 66.6956°
perigee height: 601 km
apogee height: 956 km
right ascension of ascending node: 330.8786°
argument of perigee: 64.5073°
revolutions per day: 14.33911231
mean anomaly at epoch: 298.1455°
orbit number at epoch: 24291

The dashed part of the orbit path shows where the satellite is in the earth's shadow,  

DLR